Location: Newark
(36.1358°N, 115.1208°W)
Time: 00:21:14
(UTC+00:00)

A-11 Canister half - All Passes

Search period start: 24 February 2020 00:00
Search period end: 05 March 2020 00:00
Orbit: 1517 x 1683 km, 47.2° (Epoch: 23 February)

Date Brightness Start Highest point End Pass type
(mag) Time Alt. Az. Time Alt. Az. Time Alt. Az.
24 Feb - 01:21:57 10° W 01:31:23 45° N 01:40:33 10° ENE daylight
24 Feb - 03:28:41 10° WNW 03:38:10 51° NNE 03:47:18 10° E visible
24 Feb - 05:34:04 10° WNW 05:43:40 76° SW 05:52:56 10° SE visible
24 Feb - 07:40:57 10° W 07:47:23 21° SW 07:53:43 10° S visible
24 Feb - 20:48:57 10° S 20:57:47 35° SE 21:06:29 10° ENE daylight
24 Feb - 22:52:04 10° WSW 23:02:14 82° NNW 23:12:09 10° NE daylight
25 Feb - 00:58:51 10° W 01:08:21 46° N 01:17:34 10° ENE daylight
25 Feb - 03:05:41 10° WNW 03:15:10 50° NNE 03:24:17 10° E visible
25 Feb - 05:11:07 10° WNW 05:20:46 80° SW 05:30:05 10° SE visible
25 Feb - 07:17:44 10° WNW 07:24:33 23° SW 07:31:17 10° S visible
25 Feb - 20:26:17 10° S 20:34:55 33° SE 20:43:26 10° ENE daylight
25 Feb - 22:29:06 10° WSW 22:39:17 85° NW 22:49:14 10° NE daylight
26 Feb - 00:35:46 10° W 00:45:19 47° NNW 00:54:36 10° ENE daylight
26 Feb - 02:42:40 10° WNW 02:52:09 49° NNE 03:01:17 10° E visible
26 Feb - 04:48:09 10° WNW 04:57:52 84° SW 05:07:13 10° SE visible
26 Feb - 06:54:34 10° WNW 07:01:45 25° SW 07:08:48 10° S visible
26 Feb - 20:03:39 10° S 20:12:02 31° SE 20:20:21 10° ENE daylight
26 Feb - 22:06:09 10° SW 22:16:20 89° NNW 22:26:18 10° ENE daylight
27 Feb - 00:12:40 10° W 00:22:18 48° NNW 00:31:38 10° ENE daylight
27 Feb - 02:19:40 10° WNW 02:29:08 48° NNE 02:38:15 10° E visible
27 Feb - 04:25:12 10° WNW 04:34:57 88° SW 04:44:20 10° SE visible
27 Feb - 06:31:26 10° WNW 06:38:55 27° SW 06:46:17 10° S visible
27 Feb - 19:41:02 10° S 19:49:11 28° SE 19:57:14 10° ENE daylight
27 Feb - 21:43:11 10° SW 21:53:23 87° SE 22:03:23 10° ENE daylight
27 Feb - 23:49:36 10° W 23:59:15 49° NNW 00:08:40 10° ENE daylight
28 Feb - 01:56:39 10° WNW 02:06:07 47° NNE 02:15:15 10° E visible
28 Feb - 04:02:14 10° WNW 04:12:02 88° NE 04:21:27 10° SE visible
28 Feb - 06:08:19 10° WNW 06:16:06 29° SW 06:23:44 10° S visible
28 Feb - 19:18:28 10° S 19:26:19 26° SE 19:34:07 10° ENE daylight
28 Feb - 21:20:15 10° SW 21:30:25 84° SE 21:40:26 10° ENE daylight
28 Feb - 23:26:31 10° W 23:36:14 50° NNW 23:45:43 10° ENE daylight
29 Feb - 01:33:37 10° WNW 01:43:05 46° N 01:52:14 10° E daylight
29 Feb - 03:39:16 10° NW 03:49:06 84° NNE 03:58:33 10° ESE visible
29 Feb - 05:45:13 10° WNW 05:53:16 32° SW 06:01:09 10° S visible
29 Feb - 18:55:56 10° S 19:03:28 24° SE 19:10:57 10° ENE daylight
29 Feb - 20:57:19 10° SW 21:07:30 80° SE 21:17:30 10° ENE daylight
29 Feb - 23:03:26 10° W 23:13:13 51° NNW 23:22:45 10° ENE daylight
01 Mar - 01:10:35 10° WNW 01:20:04 46° N 01:29:13 10° E daylight
01 Mar - 03:16:19 10° NW 03:26:11 81° NNE 03:35:38 10° ESE visible
01 Mar - 05:22:08 10° WNW 05:30:26 34° SW 05:38:32 10° S visible
01 Mar - 18:33:26 10° S 18:40:36 22° SE 18:47:45 10° E daylight
01 Mar - 20:34:25 10° SW 20:44:33 76° SE 20:54:33 10° ENE daylight
01 Mar - 22:40:21 10° W 22:50:11 53° NNW 22:59:48 10° ENE daylight
02 Mar - 00:47:32 10° WNW 00:57:02 45° N 01:06:12 10° ENE daylight
02 Mar - 02:53:21 10° NW 03:03:14 77° NNE 03:12:43 10° ESE visible
02 Mar - 04:59:04 10° WNW 05:07:36 37° SW 05:15:54 10° SSE visible
02 Mar - 18:11:00 10° SSE 18:17:46 20° SE 18:24:30 10° E daylight
02 Mar - 20:11:32 10° SW 20:21:37 72° SE 20:31:36 10° ENE daylight
02 Mar - 22:17:16 10° W 22:27:10 54° NNW 22:36:50 10° ENE daylight
03 Mar - 00:24:30 10° WNW 00:33:59 45° N 00:43:10 10° ENE daylight
03 Mar - 02:30:23 10° NW 02:40:17 74° NNE 02:49:47 10° ESE visible
03 Mar - 04:36:02 10° WNW 04:44:46 40° SW 04:53:14 10° SSE visible
03 Mar - 17:48:37 10° SSE 17:54:55 19° ESE 18:01:12 10° E daylight
03 Mar - 19:48:39 10° SW 19:58:41 68° SE 20:08:39 10° ENE daylight
03 Mar - 21:54:12 10° W 22:04:09 56° NNW 22:13:53 10° ENE daylight
04 Mar - 00:01:27 10° WNW 00:10:57 44° N 00:20:09 10° ENE daylight
04 Mar - 02:07:24 10° NW 02:17:20 71° NNE 02:26:50 10° ESE visible
04 Mar - 04:12:59 10° WNW 04:21:55 43° SW 04:30:34 10° SSE visible
04 Mar - 17:26:19 10° SSE 17:32:05 17° ESE 17:37:50 10° E daylight
04 Mar - 19:25:47 10° SW 19:35:46 65° SE 19:45:42 10° ENE daylight
04 Mar - 21:31:09 10° W 21:41:08 58° NNW 21:50:56 10° ENE daylight
